DH8TOM-2 Weather Reports


time (UTC)temp
F
wind
direction
speed
knots
gust
knots
rain 1hr
in
rain 24hr
in
rain mn
in
humidity
%
barometer
mb
20260503232008 57 228 0.9 1.7 0.00 0.00 0.00 65 1012.9
20260503231006 57 246 0.9 1.7 0.00 0.00 0.00 65 1012.9
20260503230004 58 225 0.9 1.7 0.00 0.00 0.00 65 1012.9
20260503225002 58 232 0.9 1.7 0.00 0.00 0.00 64 1012.9
20260503224001 58 232 0.9 2.6 0.00 0.00 0.00 63 1013.0
20260503223500 58 232 0.9 2.6 0.00 0.00 0.00 63 1013.0
20260503222959 58 242 0.9 3.5 0.00 0.00 0.00 64 1012.9
20260503222458 58 242 0.9 3.5 0.00 0.00 0.00 64 1012.9
20260503221957 58 232 0.9 1.7 0.00 0.00 0.00 63 1013.0
20260503221456 58 232 0.9 1.7 0.00 0.00 0.00 63 1013.0
20260503220955 58 239 0.9 1.7 0.00 0.00 0.00 62 1013.0
20260503220454 58 239 0.9 1.7 0.00 0.00 0.00 62 1013.0
20260503215952 58 236 0.9 1.7 0.00 0.00 0.00 62 1013.0
20260503215451 58 236 0.9 1.7 0.00 0.00 0.00 62 1013.0
20260503214950 59 240 0.9 2.6 0.00 0.00 0.00 62 1013.0
20260503214450 59 240 0.9 2.6 0.00 0.00 0.00 62 1013.0
20260503213949 59 232 0.9 2.6 0.00 0.00 0.00 61 1012.9
20260503213448 59 232 0.9 2.6 0.00 0.00 0.00 61 1012.9
20260503212946 59 270 0.9 3.5 0.00 0.00 0.00 61 1012.9
20260503212445 59 270 0.9 3.5 0.00 0.00 0.00 61 1012.9
20260503211944 59 270 0.9 1.7 0.00 0.00 0.00 59 1012.9
20260503211443 59 270 0.9 1.7 0.00 0.00 0.00 59 1012.9
20260503210942 59 270 0.9 1.7 0.00 0.00 0.00 59 1012.9
20260503210441 59 251 0.9 3.5 0.00 0.00 0.00 59 1012.8
20260503205941 59 251 0.9 3.5 0.00 0.00 0.00 59 1012.8
20260503205441 59 237 0.9 2.6 0.00 0.00 0.00 59 1012.8
20260503204939 59 237 0.9 2.6 0.00 0.00 0.00 59 1012.8
20260503204438 60 270 0.9 1.7 0.00 0.00 0.00 58 1012.6
20260503203937 60 270 0.9 1.7 0.00 0.00 0.00 58 1012.6
20260503203435 60 270 0.9 2.6 0.00 0.00 0.00 57 1012.6
20260503202934 60 270 0.9 2.6 0.00 0.00 0.00 57 1012.6
20260503202433 60 241 0.9 2.6 0.00 0.00 0.00 56 1012.5
20260503201933 60 241 0.9 2.6 0.00 0.00 0.00 56 1012.5
20260503201432 60 229 0.9 2.6 0.00 0.00 0.00 55 1012.4
20260503200931 60 229 0.9 2.6 0.00 0.00 0.00 55 1012.4
20260503200430 61 249 0.9 1.7 0.00 0.00 0.00 54 1012.3
20260503195929 61 249 0.9 1.7 0.00 0.00 0.00 54 1012.3
20260503195427 61 254 0.9 1.7 0.00 0.00 0.00 54 1012.3
20260503194926 61 254 0.9 1.7 0.00 0.00 0.00 54 1012.3
20260503194426 62 251 0.9 1.7 0.00 0.00 0.00 53 1012.2
20260503193925 62 251 0.9 1.7 0.00 0.00 0.00 53 1012.2
20260503193424 63 270 0.9 2.6 0.00 0.00 0.00 52 1012.2
20260503192923 63 270 0.9 2.6 0.00 0.00 0.00 52 1012.2
20260503192422 63 296 0.9 2.6 0.00 0.00 0.00 51 1012.0
20260503191921 63 296 0.9 2.6 0.00 0.00 0.00 51 1012.0
20260503191419 64 294 0.9 3.5 0.00 0.00 0.00 51 1012.0
20260503190918 64 294 0.9 3.5 0.00 0.00 0.00 51 1012.0
20260503190417 65 307 0.9 3.5 0.00 0.00 0.00 50 1011.9
20260503185916 65 307 0.9 3.5 0.00 0.00 0.00 50 1011.9
20260503185416 65 288 0.9 2.6 0.00 0.00 0.00 48 1011.8
20260503184915 65 288 0.9 2.6 0.00 0.00 0.00 48 1011.8
20260503184414 66 236 0.9 1.7 0.00 0.00 0.00 48 1011.7
20260503183912 66 236 0.9 1.7 0.00 0.00 0.00 48 1011.7
20260503183412 66 270 0.9 2.6 0.00 0.00 0.00 47 1011.6
20260503182911 66 270 0.9 2.6 0.00 0.00 0.00 47 1011.6
20260503182410 67 315 0.9 2.6 0.00 0.00 0.00 47 1011.7
20260503181909 67 315 0.9 2.6 0.00 0.00 0.00 47 1011.7
20260503181407 67 90 0.9 2.6 0.00 0.00 0.00 46 1011.8
20260503180906 67 90 0.9 2.6 0.00 0.00 0.00 46 1011.8
20260503180405 68 225 1.7 6.1 0.00 0.00 0.00 45 1011.7
20260503175904 68 225 1.7 6.1 0.00 0.00 0.00 45 1011.7
20260503175404 68 293 1.7 4.3 0.00 0.00 0.00 44 1011.6
20260503174903 68 293 1.7 4.3 0.00 0.00 0.00 44 1011.6
20260503174402 69 295 2.6 7.8 0.00 0.00 0.00 45 1011.4
20260503173901 69 295 2.6 7.8 0.00 0.00 0.00 45 1011.4
20260503173400 70 198 0.9 2.6 0.00 0.00 0.00 56 1011.3
20260503172859 70 198 0.9 2.6 0.00 0.00 0.00 56 1011.3
20260503172357 71 290 0.9 3.5 0.00 0.00 0.00 55 1010.9
20260503171856 71 290 0.9 3.5 0.00 0.00 0.00 55 1010.9
20260503171355 71 270 0.9 1.7 0.00 0.00 0.00 55 1010.9
20260503170855 71 270 0.9 1.7 0.00 0.00 0.00 55 1010.9
20260503170353 71 195 0.9 1.7 0.00 0.00 0.00 55 1010.8
20260503150830 74 291 1.7 4.3 0.00 0.00 0.00 47 1010.7
20260503150330 75 283 1.7 4.3 0.00 0.00 0.00 45 1010.7
20260503131414 78 246 1.7 5.2 0.00 0.00 0.00 40 1011.6
20260503130906 78 246 1.7 5.2 0.00 0.00 0.00 40 1011.6
20260503130321 77 211 1.7 7.8 0.00 0.00 0.00 42 1011.8